Location: Ciserano
(45.5833°N, 9.6000°E)
Time: 06:23:06
(UTC+00:00)

CENTAUR R/B - Pass Details

Date: 29 November 2020
Orbit: 750 x 1438 km, 63.4° (Epoch: 11 January)

Event Time Altitude Azimuth Distance (km) Brightness Sun altitude
Exits shadow 02:14:23 40° 86° (E) 1,946 4.2 -45.5°
Drops below altitude 10° 02:20:16 10° 116° (ESE) 3,526 5.8 -44.5°
Sets 02:23:24 0° 121° (ESE) 4,518 6.4 -44.0°
